sat.trackr.live / text

‹ back to catalog

LEMUR-2-VUKASIN

NORAD 66785 · 2025-276EA

PAYLOAD ACTIVE UNKNOWN

§ Identity

Operator
Country
US
Launch date
2025-11-28
Launch site
AFWTR
Launch vehicle
Mass (kg)
RCS (m²)

Purposes: earth_obs

External: N2YO · Heavens-Above · Gunter

§ Orbital elements

Epoch: 2026-05-24T22:49:30.084096Z

Period
96.00 min
Inclination
97.5280°
Eccentricity
0.0005670
Mean motion
15.00037308 rev/d
Perigee alt
562.8 km
Apogee alt
570.7 km
Semi-major
6,944.9 km
B*
5.1020e-4
RAAN
216.6315°
Arg perigee
184.9013°
Mean anomaly
175.2156°
Rev number
2,666

§ Raw data

LEMUR-2-VUKASIN1 66785U 25276EA  26144.95104264  .00006298  00000+0  51020-3 0  99972 66785  97.5280 216.6315 0005670 184.9013 175.2156 15.00037308 26667

JSON: /api/v1/satellites/66785 · /tle

For live sub-satellite position, see the globe view (requires WebGL).

§ Visibility from observer

Set your observer location to see the next 7 days of passes ≥ 10°. The values pass through the URL so the page stays shareable.

No JS? Fill the form by hand. The geolocation button needs JavaScript.